Location: Newark
(7.0858°N, 171.3717°E)
Time: 08:55:08
(UTC+00:00)

S-56A Canister/Altair - Pass Details

Date: 29 November 2020
Orbit: 633 x 2499 km, 38.9° (Epoch: 27 January)

Event Time Altitude Azimuth Distance (km) Brightness Sun altitude
Rises 13:53:13 0° 337° (NNW) 3,261 - -63.8°
Reaches altitude 10° 13:57:50 10° 14° (NNE) 2,097 - -62.9°
Maximum altitude 13:59:05 11° 30° (NNE) 1,993 - -62.6°
Drops below altitude 10° 14:00:19 10° 46° (NE) 2,025 - -62.4°
Sets 14:04:26 0° 85° (E) 2,916 - -61.5°
